Weather in Vogulka

Russia / Sverdlovsk Oblast     57°20′11″N   58°31′18″E
temp.,
°C
wind,
m/s
gust,
m/s
humid.,
%
clouds,
%
prec.,
mm/h
press.,
hPa
HPBL,
m
23 april, fri
fri2323:00+5ssw3788100 0.2 1030941
02:00+2ssw41296100 4.1 1030627
05:00+1ssw31098100 7.5 1030451
08:00+2ssw3898100 0.3 1031449
11:00+3ssw2798100 0.4 1031463
14:00+4ssw2492100 0.1 1031587
17:00+5s2378100 0.1 1030731
20:00+5se1185100 0.0 103018
24 april, sat
sat2423:00+3e2492100 0.0 102979
02:00+2e2794100 0.0 1027156
05:00+4e3695100 0.0 1025183
08:00+4e3897100 0.3 1023303
11:00+6ese4895100 0.4 1021856
14:00+5ese4895100 0.4 1020987
17:00+5ese4892100 1.0 1019928
20:00+4se41097100 0.6 1019757
25 april, sun
sun2523:00+4e31091100 0.6 1017367
02:00+3ese41080100 0.0 1015363
05:00+2ese31087100 0.0 1015392
08:00+2se4897100 0.1 1014726
11:00+3se4997100 0.2 1012598
14:00+5se498888 0.0 1010789
17:00+6sse41193100 4.0 10091149
20:00+4sw388942 2.1 1011380
26 april, mon
mon2623:00+3ssw3985100 2.3 1011311
02:00+2sw51287100 0.1 1012615
05:000sw41299100 0.7 1013774
08:00+2wsw5118890 0.5 1015842
11:00+5wsw6117583 0.9 10161264
14:00+8wsw6115296 0.5 10162227
17:00+8sw6115759 0.8 10161938
20:00+6sw4116287 0.2 1016648
27 april, tue
tue2723:00+4ssw31270100 0.2 1016417
02:00+3s2478100 0.0 101577
05:00+3sse1176100 0.0 101313
08:00+4sse2675100 0.0 1011259
11:00+6ese2468100 0.0 1009717
14:00+8ene2460100 0.1 10071259
17:00+8nne235782 0.1 10061207
20:00+6sse11708 0.0 100610